Regional Weather Roundup
Issued by NWS

Home | Current Version | Previous Version | Graphics & Text | Print | Product List | Glossary On
Versions: 1 2 3 4 5 6 7 8 9 10 11 12 13 14 15 16 17 18 19 20 21 22 23 24 25 26 27 28 29 30 31 32 33 34 35 36 37 38 39 40 41 42 43 44 45 46 47 48 49 50
031
ASUS43 KIND 281209
RWRIN

WEATHER ROUNDUP FOR INDIANA
NATIONAL WEATHER SERVICE INDIANAPOLIS IN
800 AM EDT THU APR 28 2016

NOTE: "FAIR" INDICATES FEW OR NO CLOUDS BELOW 12,000 FEET WITH NO
SIGNIFICANT WEATHER AND/OR OBSTRUCTIONS TO VISIBILITY.

* - STATION DOES NOT REPORT WEATHER SUCH AS PRECIPITATION OR FOG.

+ - STATION NOT QUALITY CONTROLLED BY THE NATIONAL WEATHER SERVICE.
    USE DATA WITH CAUTION...ESPECIALLY DEWPOINT AND RELATIVE
    HUMIDITY OBSERVATIONS.

INZ001>003-010>013-019-020-281300-
NORTHWEST INDIANA

CITY           SKY/WX    TMP DP  RH WIND       PRES   REMARKS
GARY /AIRPORT/ CLOUDY    48  48 100 E10       29.81F
KNOX *+          N/A    N/A N/A N/A MISG        N/A
LA PORTE +     LGT RAIN  45  45 100 E16G23    29.82F
6HR MIN TEMP:  45; 6HR MAX TEMP:  50; 6HR PCP:  0.02;

MICHIGAN CITY+ RAIN      43  43 100 N5G18     29.83F
MONTICELLO +   CLOUDY    46  42  87 SE6       29.80R
6HR MIN TEMP:  45; 6HR MAX TEMP:  46; 6HR PCP:  0.07;

RENSSELAER +   CLOUDY    46  45  93 NE6       29.83R FOG
VALPARAISO     CLOUDY    44  43  96 NE8       29.82R
6HR MIN TEMP:  44; 6HR MAX TEMP:  47; 6HR PCP:  0.20;


$$

LMZ046-743>745-281300-
SOUTHERN LAKE MICHIGAN

STATION/POSITION TIME  TEMP    WIND        PRES    WAVE
                       AIR SEA DIR/SP/G            HT
                 (UTC) (F)     (DEG/KT/KT) (MB)    (FT)
BURNS HARBOR     1106   46      40/  8/ 15 1010.8S

$$

INZ004-005-014>016-021>024-281300-
NORTH CENTRAL INDIANA

CITY           SKY/WX    TMP DP  RH WIND       PRES   REMARKS
ELKHART        CLOUDY    43  39  87 E12G18    29.90R
GOSHEN         LGT RAIN  42  37  82 E13       29.89R
6HR MIN TEMP:  42; 6HR MAX TEMP:  46; 6HR PCP:  0.03;

LOGANSPORT +   CLOUDY    43  39  87 E16       29.81S
PERU/GRISSOM   MOSUNNY   45  44  99 E17       29.79F
6HR MIN TEMP:  43; 6HR MAX TEMP:  46; 6HR PCP:  0.06;

ROCHESTER +    LGT RAIN  45  43  93 E17       29.82F
SOUTH BEND     CLOUDY    43  39  86 E12       29.87S
6HR MIN TEMP:  42; 6HR MAX TEMP:  48; 6HR PCP:  0.08;

WARSAW +       LGT RAIN  43  41  93 E12       29.87F

$$

INZ006>009-017-018-025>027-281300-
NORTHEAST INDIANA

CITY           SKY/WX    TMP DP  RH WIND       PRES   REMARKS
ANGOLA *+      CLOUDY    39  36  87 E12       29.91R
AUBURN +       CLOUDY    41  37  87 NE13      29.91S
FORT WAYNE     LGT RAIN  44  40  85 E15       29.90R FOG
6HR MIN TEMP:  42; 6HR MAX TEMP:  44; 6HR PCP:  0.47;

HUNTINGTON +   RAIN     N/A N/A N/A E8        29.88S
                                      6HR PCP:  0.28;


$$

INZ028-029-035-036-043>045-051>053-281300-
WEST CENTRAL INDIANA

CITY           SKY/WX    TMP DP  RH WIND       PRES   REMARKS
CRAWFORDSVL +  SUNNY     49  49 100 E7        29.77S
6HR MIN TEMP:  47; 6HR MAX TEMP:  56; 6HR PCP:  0.33;

GREENCASTLE +  SUNNY     55  55 100 CALM      29.79R
LAFAYETTE      CLOUDY    47  46  97 E8        29.78R
6HR MIN TEMP:  46; 6HR MAX TEMP:  48; 6HR PCP:  0.12;

TERRE HAUTE    MOSUNNY   57  55  93 SE6       29.77R
6HR MIN TEMP:  55; 6HR MAX TEMP:  62; 6HR PCP:  0.41;


$$

INZ030>032-037>040-046>048-054>057-064-065-281300-
CENTRAL INDIANA

CITY           SKY/WX    TMP DP  RH WIND       PRES   REMARKS
CP ATTERBURY + TSTM      55  55 100 N5        29.82R
COLUMBUS       RAIN      57  57 100 N15       29.82R FOG
FISHERS *+     CLOUDY    46  46 100 E9        29.80F
FRANKFORT +      N/A     47  47 100 E15       29.80R FOG
6HR MIN TEMP:  46; 6HR MAX TEMP:  50; 6HR PCP:  0.07;

GREENWOOD *+   CLOUDY    52  52 100 NE7       29.81R
INDIANAPOLIS   CLOUDY    51  49  92 E14       29.78S FOG
6HR MIN TEMP:  51; 6HR MAX TEMP:  58; 6HR PCP:  0.64;

-EAGLE CREEK   PTSUNNY   50  49  96 SE7       29.79S
6HR MIN TEMP:  50; 6HR MAX TEMP:  57; 6HR PCP:  0.33;

KOKOMO *+      CLOUDY    45  39  81 E13G24    29.82S
6HR MIN TEMP:  45; 6HR MAX TEMP:  46; 6HR PCP:  0.09;

MARION +       CLOUDY    44  42  94 E13       29.83F FOG
SHELBYVILLE    LGT RAIN  56  53  90 E14       29.79F
6HR MIN TEMP:  56; 6HR MAX TEMP:  61; 6HR PCP:  0.41;

ZIONSVILLE +   TSTM      46  45  97 E12       29.79F
6HR MIN TEMP:  46; 6HR MAX TEMP:  49; 6HR PCP:  0.45;


$$

INZ033-034-041-042-049-050-058-059-281300-
EAST CENTRAL INDIANA

CITY           SKY/WX    TMP DP  RH WIND       PRES   REMARKS
MUNCIE         RAIN      46  43  89 E12       29.85F FOG
6HR MIN TEMP:  46; 6HR MAX TEMP:  48; 6HR PCP:  0.21;


$$

INZ060-061-067>069-081>083-085>088-281300-
SOUTHWEST INDIANA

CITY           SKY/WX    TMP DP  RH WIND       PRES   REMARKS
EVANSVILLE     MOSUNNY   60  60 100 CALM      29.79R FOG
6HR MIN TEMP:  58; 6HR MAX TEMP:  62;

HUNTINGBURG *+ PTSUNNY   63  59  88 S7        29.80R
6HR MIN TEMP:  61; 6HR MAX TEMP:  63;

WASHINGTON +   CLOUDY    61  61 100 S6        29.78R FOG
6HR MIN TEMP:  60; 6HR MAX TEMP:  62;


$$

INZ062-063-066-070>080-084-089>092-281300-
SOUTH CENTRAL AND SOUTHEAST INDIANA

CITY           SKY/WX    TMP DP  RH WIND       PRES   REMARKS
BEDFORD +      CLOUDY    61  61 100 S5        29.79R FOG
BLOOMINGTON    CLOUDY    62  59  90 SE6       29.79S
6HR MIN TEMP:  61; 6HR MAX TEMP:  62; 6HR PCP:  0.07;

MADISON *+     CLOUDY    61  59  94 S7        29.82R
NORTH VERNON + CLOUDY   N/A N/A N/A CALM      29.81R
SEYMOUR +      CLOUDY    63  61  94 CALM      29.80R THUNDER

$$





USA.gov is the U.S. government's official web portal to all federal, state and local government web resources and services.